When you browse on this site, cookies collect data to enhance your experience and personalize the content and advertising you see.
Visit our Privacy Policy to learn more. By continuing to use the site, you agree to this use of cookies and data.
  • în România
  • Lista ţărilor
  • Pe 7 zile
  • Temperatura apei
  • Hartă satelitară
  • Meteo pe hartă
  • Widget-uri
  • user-avatar
    Intrare

    Meteo pe oră la Novokrivovka

    Astăzi, 25 Martie, Luni

    Timp Temperatura Precipitaţii Vânt Presiune Umiditate
    00:00 -2°C° 0.6 mm 5 m/s 746 mmHg 96%
    01:00 -3°C° 0.2 mm 6 m/s 746 mmHg 95%
    02:00 -3°C° 0.2 mm 7 m/s 746 mmHg 93%
    03:00 -4°C° 0.2 mm 8 m/s 746 mmHg 92%
    04:00 -5°C° 0.4 mm 8 m/s 746 mmHg 91%
    05:00 -5°C° 0.4 mm 8 m/s 746 mmHg 91%
    06:00 -6°C° 0.4 mm 8 m/s 746 mmHg 91%
    07:00 -6°C° 0 mm 8 m/s 746 mmHg 90%
    08:00 -6°C° 0 mm 7 m/s 747 mmHg 90%
    09:00 -6°C° 0 mm 7 m/s 747 mmHg 90%
    10:00 -4°C° 0.1 mm 7 m/s 747 mmHg 92%
    11:00 -3°C° 0.1 mm 6 m/s 748 mmHg 95%
    12:00 -2°C° 0.1 mm 6 m/s 748 mmHg 98%
    13:00 -2°C° 0 mm 6 m/s 749 mmHg 98%
    14:00 -2°C° 0 mm 6 m/s 749 mmHg 98%
    15:00 -2°C° 0 mm 6 m/s 749 mmHg 98%
    16:00 -2°C° 0 mm 6 m/s 750 mmHg 95%
    17:00 -2°C° 0 mm 5 m/s 750 mmHg 91%
    18:00 -4°C° 0 mm 5 m/s 751 mmHg 88%
    19:00 -4°C° 0 mm 5 m/s 751 mmHg 88%
    20:00 -4°C° 0 mm 4 m/s 752 mmHg 89%
    21:00 -4°C° 0 mm 4 m/s 753 mmHg 89%
    22:00 -5°C° 0 mm 4 m/s 753 mmHg 90%
    23:00 -5°C° 0 mm 3 m/s 754 mmHg 90%

    Mâine, 26 Martie, Marţi

    Timp Temperatura Precipitaţii Vânt Presiune Umiditate
    00:00 -6°C° 0 mm 3 m/s 754 mmHg 91%
    01:00 -6°C° 0 mm 3 m/s 755 mmHg 90%
    02:00 -7°C° 0 mm 3 m/s 755 mmHg 90%
    03:00 -7°C° 0 mm 3 m/s 756 mmHg 90%
    04:00 -6°C° 0 mm 2 m/s 756 mmHg 90%
    05:00 -6°C° 0 mm 2 m/s 756 mmHg 89%
    06:00 -7°C° 0 mm 2 m/s 756 mmHg 89%
    07:00 -5°C° 0 mm 2 m/s 756 mmHg 88%
    08:00 -5°C° 0 mm 3 m/s 756 mmHg 88%
    09:00 -4°C° 0 mm 3 m/s 756 mmHg 88%
    10:00 -2°C° 0 mm 3 m/s 756 mmHg 91%
    11:00 -2°C° 0 mm 4 m/s 756 mmHg 93%
    12:00 -1°C° 0 mm 4 m/s 756 mmHg 96%
    13:00 -1°C° 0 mm 4 m/s 755 mmHg 97%
    14:00 -1°C° 0 mm 5 m/s 755 mmHg 98%
    15:00 0°C° 0 mm 5 m/s 754 mmHg 99%
    16:00 0°C° 0.1 mm 5 m/s 754 mmHg 98%
    17:00 0°C° 0.1 mm 5 m/s 753 mmHg 98%
    18:00 0°C° 0.1 mm 5 m/s 753 mmHg 98%
    19:00 -1°C° 0.2 mm 6 m/s 753 mmHg 98%
    20:00 +1°C° 0.2 mm 6 m/s 753 mmHg 97%
    21:00 +1°C° 0.2 mm 6 m/s 753 mmHg 97%
    22:00 0°C° 0.4 mm 7 m/s 752 mmHg 95%
    23:00 0°C° 0.4 mm 7 m/s 752 mmHg 93%

    Poimâine, 27 Martie, Miercuri

    Timp Temperatura Precipitaţii Vânt Presiune Umiditate
    00:00 0°C° 0.4 mm 7 m/s 752 mmHg 92%
    01:00 0°C° 0.3 mm 7 m/s 752 mmHg 91%
    02:00 0°C° 0.3 mm 8 m/s 752 mmHg 90%
    03:00 0°C° 0.3 mm 8 m/s 751 mmHg 90%
    04:00 0°C° 0.9 mm 8 m/s 751 mmHg 91%
    05:00 -1°C° 0.9 mm 7 m/s 751 mmHg 92%
    06:00 -1°C° 0.9 mm 7 m/s 751 mmHg 93%
    07:00 -1°C° 1.1 mm 6 m/s 752 mmHg 94%
    08:00 -1°C° 1.1 mm 6 m/s 752 mmHg 95%
    09:00 -2°C° 1.1 mm 6 m/s 753 mmHg 96%
    10:00 -1°C° 0.7 mm 5 m/s 753 mmHg 97%
    11:00 -1°C° 0.7 mm 4 m/s 753 mmHg 98%
    12:00 0°C° 0.7 mm 3 m/s 754 mmHg 99%
    13:00 0°C° 0.1 mm 3 m/s 754 mmHg 99%
    14:00 +1°C° 0.1 mm 2 m/s 754 mmHg 99%
    15:00 +2°C° 0.1 mm 2 m/s 754 mmHg 99%
    16:00 +1°C° 0 mm 2 m/s 754 mmHg 98%
    17:00 +2°C° 0 mm 1 m/s 755 mmHg 97%
    18:00 +1°C° 0 mm 1 m/s 755 mmHg 96%
    19:00 -1°C° 0 mm 2 m/s 755 mmHg 95%
    20:00 -1°C° 0 mm 2 m/s 755 mmHg 95%
    21:00 -1°C° 0 mm 2 m/s 756 mmHg 94%
    22:00 -2°C° 0 mm 2 m/s 756 mmHg 94%
    23:00 -3°C° 0 mm 2 m/s 756 mmHg 94%

    28 Martie, Joi

    Timp Temperatura Precipitaţii Vânt Presiune Umiditate
    00:00 -4°C° 0 mm 2 m/s 755 mmHg 93%
    01:00 -4°C° 0 mm 2 m/s 755 mmHg 93%
    02:00 -6°C° 0 mm 3 m/s 755 mmHg 92%
    03:00 -6°C° 0 mm 3 m/s 755 mmHg 92%
    04:00 -6°C° 0 mm 3 m/s 755 mmHg 91%
    05:00 -7°C° 0 mm 4 m/s 754 mmHg 90%
    06:00 -7°C° 0 mm 4 m/s 754 mmHg 90%
    07:00 -5°C° 0.1 mm 4 m/s 755 mmHg 89%
    08:00 -5°C° 0.1 mm 3 m/s 755 mmHg 88%
    09:00 -4°C° 0.1 mm 3 m/s 755 mmHg 87%
    10:00 -3°C° 0 mm 4 m/s 755 mmHg 86%
    11:00 -3°C° 0 mm 4 m/s 755 mmHg 84%
    12:00 -2°C° 0 mm 5 m/s 755 mmHg 83%
    13:00 -2°C° 0 mm 5 m/s 756 mmHg 83%
    14:00 -2°C° 0 mm 5 m/s 756 mmHg 84%
    15:00 -3°C° 0 mm 6 m/s 756 mmHg 84%
    16:00 -2°C° 0 mm 5 m/s 756 mmHg 86%
    17:00 -2°C° 0 mm 5 m/s 757 mmHg 88%
    18:00 -2°C° 0 mm 4 m/s 757 mmHg 90%
    19:00 -2°C° 0.1 mm 4 m/s 757 mmHg 90%
    20:00 -2°C° 0.1 mm 5 m/s 757 mmHg 90%
    21:00 -2°C° 0.1 mm 5 m/s 758 mmHg 90%
    22:00 -2°C° 0 mm 5 m/s 758 mmHg 90%
    23:00 -2°C° 0 mm 5 m/s 758 mmHg 90%

    29 Martie, Vineri

    Timp Temperatura Precipitaţii Vânt Presiune Umiditate
    00:00 -4°C° 0 mm 5 m/s 758 mmHg 90%
    01:00 -4°C° 0 mm 5 m/s 759 mmHg 90%
    02:00 -5°C° 0 mm 5 m/s 759 mmHg 91%
    03:00 -4°C° 0 mm 4 m/s 759 mmHg 91%
    04:00 -5°C° 0 mm 4 m/s 759 mmHg 91%
    05:00 -5°C° 0 mm 4 m/s 760 mmHg 92%
    06:00 -5°C° 0 mm 4 m/s 760 mmHg 92%
    07:00 -5°C° 0 mm 4 m/s 760 mmHg 91%
    08:00 -4°C° 0 mm 4 m/s 760 mmHg 89%
    09:00 -5°C° 0 mm 5 m/s 760 mmHg 88%
    10:00 -3°C° 0 mm 4 m/s 760 mmHg 85%
    11:00 -3°C° 0 mm 4 m/s 760 mmHg 82%
    12:00 -2°C° 0 mm 4 m/s 760 mmHg 79%
    13:00 -2°C° 0 mm 4 m/s 759 mmHg 80%
    14:00 -2°C° 0 mm 4 m/s 759 mmHg 80%
    15:00 -1°C° 0 mm 4 m/s 758 mmHg 81%
    16:00 -1°C° 0.1 mm 4 m/s 758 mmHg 81%
    17:00 -1°C° 0.1 mm 4 m/s 757 mmHg 81%
    18:00 -1°C° 0.1 mm 4 m/s 756 mmHg 81%
    19:00 -1°C° 0.6 mm 5 m/s 756 mmHg 83%
    20:00 -2°C° 0.6 mm 6 m/s 755 mmHg 85%
    21:00 -2°C° 0.6 mm 6 m/s 755 mmHg 86%
    22:00 -1°C° 0.7 mm 5 m/s 754 mmHg 89%
    23:00 -1°C° 0.7 mm 4 m/s 754 mmHg 91%

    30 Martie, Sâmbătă

    Timp Temperatura Precipitaţii Vânt Presiune Umiditate
    00:00 0°C° 0.7 mm 3 m/s 753 mmHg 94%
    01:00 -1°C° 0.4 mm 4 m/s 753 mmHg 93%
    02:00 -1°C° 0.4 mm 4 m/s 753 mmHg 93%
    03:00 -1°C° 0.4 mm 4 m/s 753 mmHg 93%
    04:00 -2°C° 0.1 mm 4 m/s 753 mmHg 93%
    05:00 -2°C° 0.1 mm 4 m/s 754 mmHg 93%
    06:00 -3°C° 0.1 mm 4 m/s 754 mmHg 93%
    07:00 -3°C° 0 mm 4 m/s 755 mmHg 94%
    08:00 -2°C° 0 mm 4 m/s 755 mmHg 95%
    09:00 -2°C° 0 mm 4 m/s 756 mmHg 96%
    10:00 -2°C° 0 mm 4 m/s 756 mmHg 97%
    11:00 -1°C° 0 mm 4 m/s 757 mmHg 98%
    12:00 -1°C° 0 mm 4 m/s 757 mmHg 99%
    13:00 0°C° 0 mm 3 m/s 757 mmHg 99%
    14:00 0°C° 0 mm 3 m/s 758 mmHg 99%
    15:00 0°C° 0 mm 3 m/s 758 mmHg 98%
    16:00 +1°C° 0 mm 2 m/s 758 mmHg 96%
    17:00 +1°C° 0 mm 2 m/s 758 mmHg 93%
    18:00 +1°C° 0 mm 2 m/s 758 mmHg 90%
    19:00 -1°C° 0 mm 2 m/s 759 mmHg 89%
    20:00 +1°C° 0 mm 1 m/s 759 mmHg 89%
    21:00 0°C° 0 mm 1 m/s 759 mmHg 88%
    22:00 0°C° 0 mm 1 m/s 759 mmHg 89%
    23:00 -2°C° 0 mm 0 m/s 759 mmHg 90%
    Arată mai mult